Overview Statistics Trail Chart Weather Telemetry Raw packets
 

This is the latest recevied weather packets stored in our database for station/object HG5CJW-10. If no packets are shown the sender has not sent any weather packets the latest 10 day(s).

<< 24 25 26 27 28 29 30 >>
Time Temp. Humidity Pressure Rain* Wind** Luminosity Snow
1788012961 27.78° C 43% 1033.5 hPa - - - -
1788012056 27.78° C 43% 1034 hPa - - - -
1788011156 27.78° C 43% 1034.1 hPa - - - -
1788010256 27.78° C 43% 1034.1 hPa - - - -
1788009355 27.78° C 43% 1034.2 hPa - - - -
1788008455 28.33° C 42% 1034.3 hPa - - - -
1788007556 28.33° C 42% 1034.3 hPa - - - -
1788006655 27.78° C 42% 1034.1 hPa - - - -
1788005755 27.78° C 42% 1034.5 hPa - - - -
1788004855 27.78° C 42% 1034.2 hPa - - - -
1788003955 27.78° C 43% 1034.2 hPa - - - -
1788003055 27.78° C 42% 1034.3 hPa - - - -
1788002155 27.78° C 43% 1034.4 hPa - - - -
1788001255 27.22° C 43% 1034.3 hPa - - - -
1788000355 27.22° C 43% 1034.3 hPa - - - -
1787999455 26.67° C 43% 1033.7 hPa - - - -
1787998549 26.67° C 43% 1034.1 hPa - - - -
1787996749 26.11° C 44% 1034.3 hPa - - - -
1787995849 26.11° C 44% 1034.4 hPa - - - -
1787994949 25.56° C 45% 1034.5 hPa - - - -
1787994049 25° C 45% 1034.5 hPa - - - -
1787993149 25° C 46% 1034.5 hPa - - - -
1787992249 24.44° C 47% 1034.6 hPa - - - -
1787991349 23.89° C 47% 1034.2 hPa - - - -
1787990449 23.89° C 48% 1034 hPa - - - -

* Rain since midnight (hover to see other rain measurements)
** Current wind speed in m/s (hover to see current wind gust speed)